Time,TemperatureF,DewpointF,PressureIn,WindDirection,WindDirectionDegrees,WindSpeedMPH,WindSpeedGustMPH,Humidity,HourlyPrecipIn,Conditions,Clouds,dailyrainin,SoftwareType,DateUTC
2013-03-15 00:03:00,34.0,16.0,29.92,North,350,10.0,21.0,47,-99.99,,,-99.99,,2013-03-15 04:03:00,
2013-03-15 00:12:00,34.0,18.0,29.92,NNW,330,8.0,21.0,51,-99.99,,,-99.99,,2013-03-15 04:12:00,
2013-03-15 00:23:00,34.0,18.0,29.92,NNW,330,7.0,17.0,51,-99.99,,,-99.99,,2013-03-15 04:23:00,
2013-03-15 00:33:00,34.0,18.0,29.93,NNW,340,12.0,21.0,51,-99.99,,,-99.99,,2013-03-15 04:33:00,
2013-03-15 00:43:00,34.0,18.0,29.93,North,350,7.0,-999.0,51,-99.99,,,-99.99,,2013-03-15 04:43:00,
2013-03-15 00:52:00,32.0,18.0,29.93,North,360,8.0,-999.0,54,-99.99,,,-99.99,,2013-03-15 04:52:00,
2013-03-15 01:02:00,32.0,18.0,29.93,North,360,8.0,-999.0,54,-99.99,,,-99.99,,2013-03-15 05:02:00,
2013-03-15 01:12:00,32.0,18.0,29.94,North,350,9.0,-999.0,54,-99.99,,,-99.99,,2013-03-15 05:12:00,
2013-03-15 01:22:00,32.0,18.0,29.94,NNW,340,8.0,-999.0,54,-99.99,,,-99.99,,2013-03-15 05:22:00,
2013-03-15 01:32:00,32.0,18.0,29.94,North,350,10.0,17.0,54,-99.99,,,-99.99,,2013-03-15 05:32:00,
2013-03-15 01:42:00,32.0,18.0,29.94,North,350,10.0,-999.0,54,-99.99,,,-99.99,,2013-03-15 05:42:00,
2013-03-15 01:52:00,32.0,18.0,29.94,North,350,7.0,-999.0,54,-99.99,,,-99.99,,2013-03-15 05:52:00,
2013-03-15 02:02:00,32.0,18.0,29.94,North,350,7.0,-999.0,54,-99.99,,,-99.99,,2013-03-15 06:02:00,
2013-03-15 02:12:00,30.0,19.0,29.95,North,10,10.0,16.0,63,-99.99,,,-99.99,,2013-03-15 06:12:00,
2013-03-15 02:22:00,30.0,19.0,29.95,North,360,9.0,-999.0,63,-99.99,,,-99.99,,2013-03-15 06:22:00,
2013-03-15 02:32:00,30.0,18.0,29.95,North,360,10.0,20.0,59,-99.99,,,-99.99,,2013-03-15 06:32:00,
2013-03-15 02:42:00,30.0,18.0,29.95,North,350,8.0,20.0,59,-99.99,,,-99.99,,2013-03-15 06:42:00,
2013-03-15 02:52:00,30.0,18.0,29.96,North,360,10.0,-999.0,59,-99.99,,,-99.99,,2013-03-15 06:52:00,
2013-03-15 03:02:00,30.0,18.0,29.96,North,360,10.0,-999.0,59,-99.99,,,-99.99,,2013-03-15 07:02:00,
2013-03-15 03:12:00,28.0,18.0,29.96,North,360,12.0,20.0,63,-99.99,,,-99.99,,2013-03-15 07:12:00,
2013-03-15 03:22:00,28.0,18.0,29.96,North,360,12.0,17.0,63,-99.99,,,-99.99,,2013-03-15 07:22:00,
2013-03-15 03:32:00,28.0,18.0,29.96,North,360,10.0,-999.0,63,-99.99,,,-99.99,,2013-03-15 07:32:00,
2013-03-15 03:42:00,28.0,18.0,29.95,North,10,10.0,-999.0,63,-99.99,,,-99.99,,2013-03-15 07:42:00,
2013-03-15 03:52:00,28.0,18.0,29.95,North,10,10.0,-999.0,63,-99.99,,,-99.99,,2013-03-15 07:52:00,
2013-03-15 04:02:00,28.0,18.0,29.95,North,10,10.0,-999.0,63,-99.99,,,-99.99,,2013-03-15 08:02:00,
2013-03-15 04:12:00,28.0,16.0,29.96,North,10,8.0,-999.0,58,-99.99,,,-99.99,,2013-03-15 08:12:00,
2013-03-15 04:23:00,28.0,16.0,29.95,North,360,7.0,-999.0,58,-99.99,,,-99.99,,2013-03-15 08:23:00,
2013-03-15 04:33:00,27.0,16.0,29.95,North,360,9.0,-999.0,63,-99.99,,,-99.99,,2013-03-15 08:33:00,
2013-03-15 04:42:00,27.0,16.0,29.95,North,360,9.0,-999.0,63,-99.99,,,-99.99,,2013-03-15 08:42:00,
2013-03-15 04:52:00,27.0,16.0,29.95,North,10,6.0,-999.0,63,-99.99,,,-99.99,,2013-03-15 08:52:00,
2013-03-15 05:02:00,27.0,16.0,29.95,North,10,6.0,-999.0,63,-99.99,,,-99.99,,2013-03-15 09:02:00,
2013-03-15 05:12:00,27.0,16.0,29.95,North,10,6.0,-999.0,63,-99.99,,,-99.99,,2013-03-15 09:12:00,
2013-03-15 05:22:00,27.0,16.0,29.95,North,10,3.0,-999.0,63,-99.99,,,-99.99,,2013-03-15 09:22:00,
2013-03-15 05:33:00,27.0,16.0,29.95,North,10,6.0,-999.0,63,-99.99,,,-99.99,,2013-03-15 09:33:00,
2013-03-15 05:43:00,27.0,16.0,29.95,North,10,3.0,-999.0,63,-99.99,,,-99.99,,2013-03-15 09:43:00,
2013-03-15 05:52:00,27.0,16.0,29.95,North,10,5.0,-999.0,63,-99.99,,,-99.99,,2013-03-15 09:52:00,
2013-03-15 06:03:00,27.0,16.0,29.95,North,10,5.0,-999.0,63,-99.99,,,-99.99,,2013-03-15 10:03:00,
2013-03-15 06:12:00,27.0,16.0,29.95,NNE,20,6.0,-999.0,63,-99.99,,,-99.99,,2013-03-15 10:12:00,
2013-03-15 06:23:00,27.0,16.0,29.95,North,10,3.0,-999.0,63,-99.99,,,-99.99,,2013-03-15 10:23:00,
2013-03-15 06:33:00,27.0,16.0,29.95,NNE,20,3.0,-999.0,63,-99.99,,,-99.99,,2013-03-15 10:33:00,
2013-03-15 06:42:00,27.0,16.0,29.95,NNE,20,5.0,-999.0,63,-99.99,,,-99.99,,2013-03-15 10:42:00,
2013-03-15 06:52:00,25.0,16.0,29.94,NE,50,5.0,-999.0,68,-99.99,,,-99.99,,2013-03-15 10:52:00,
2013-03-15 07:03:00,25.0,16.0,29.94,NE,50,5.0,-999.0,68,-99.99,,,-99.99,,2013-03-15 11:03:00,
2013-03-15 07:12:00,25.0,16.0,29.94,NE,50,5.0,-999.0,68,-99.99,,,-99.99,,2013-03-15 11:12:00,
2013-03-15 07:22:00,25.0,16.0,29.94,ENE,60,3.0,-999.0,68,-99.99,,,-99.99,,2013-03-15 11:22:00,
2013-03-15 07:32:00,25.0,16.0,29.94,ENE,70,3.0,-999.0,68,-99.99,,,-99.99,,2013-03-15 11:32:00,
2013-03-15 07:42:00,25.0,16.0,29.94,ENE,70,3.0,-999.0,68,-99.99,,,-99.99,,2013-03-15 11:42:00,
2013-03-15 07:52:00,27.0,16.0,29.93,ENE,60,3.0,-999.0,63,-99.99,,,-99.99,,2013-03-15 11:52:00,
2013-03-15 08:02:00,27.0,16.0,29.93,ENE,60,3.0,-999.0,63,-99.99,,,-99.99,,2013-03-15 12:02:00,
2013-03-15 08:12:00,27.0,16.0,29.93,ENE,60,5.0,-999.0,63,-99.99,,,-99.99,,2013-03-15 12:12:00,
2013-03-15 08:23:00,27.0,16.0,29.93,East,90,5.0,-999.0,63,-99.99,,,-99.99,,2013-03-15 12:23:00,
2013-03-15 08:32:00,27.0,16.0,29.92,East,90,3.0,-999.0,63,-99.99,,,-99.99,,2013-03-15 12:32:00,
2013-03-15 08:42:00,27.0,16.0,29.93,East,90,3.0,-999.0,63,-99.99,,,-99.99,,2013-03-15 12:42:00,
2013-03-15 08:52:00,28.0,16.0,29.92,North,0,0.0,-999.0,58,-99.99,,,-99.99,,2013-03-15 12:52:00,
2013-03-15 09:02:00,28.0,16.0,29.92,North,0,0.0,-999.0,58,-99.99,,,-99.99,,2013-03-15 13:02:00,
2013-03-15 09:12:00,28.0,16.0,29.92,East,80,3.0,-999.0,58,-99.99,,,-99.99,,2013-03-15 13:12:00,
2013-03-15 09:22:00,28.0,16.0,29.91,North,0,0.0,-999.0,58,-99.99,,,-99.99,,2013-03-15 13:22:00,
2013-03-15 09:32:00,30.0,16.0,29.90,East,90,3.0,-999.0,54,-99.99,,,-99.99,,2013-03-15 13:32:00,
2013-03-15 09:42:00,30.0,18.0,29.90,North,0,0.0,-999.0,59,-99.99,,,-99.99,,2013-03-15 13:42:00,
2013-03-15 09:52:00,30.0,18.0,29.90,North,0,0.0,-999.0,59,-99.99,,,-99.99,,2013-03-15 13:52:00,
2013-03-15 10:02:00,30.0,18.0,29.90,North,0,0.0,-999.0,59,-99.99,,,-99.99,,2013-03-15 14:02:00,
2013-03-15 10:12:00,32.0,18.0,29.90,South,170,3.0,-999.0,54,-99.99,,,-99.99,,2013-03-15 14:12:00,
2013-03-15 10:22:00,32.0,18.0,29.89,WSW,250,5.0,-999.0,54,-99.99,,,-99.99,,2013-03-15 14:22:00,
2013-03-15 10:32:00,34.0,18.0,29.88,SW,230,6.0,-999.0,51,-99.99,,,-99.99,,2013-03-15 14:32:00,
2013-03-15 10:42:00,34.0,18.0,29.88,South,190,9.0,-999.0,51,-99.99,,,-99.99,,2013-03-15 14:42:00,
2013-03-15 10:52:00,34.0,18.0,29.88,SSW,200,8.0,-999.0,51,-99.99,,,-99.99,,2013-03-15 14:52:00,
2013-03-15 11:02:00,34.0,18.0,29.88,SSW,200,8.0,-999.0,51,-99.99,,,-99.99,,2013-03-15 15:02:00,
2013-03-15 11:13:00,36.0,18.0,29.86,South,190,10.0,-999.0,47,-99.99,,,-99.99,,2013-03-15 15:13:00,
2013-03-15 11:23:00,36.0,18.0,29.84,SSW,200,7.0,-999.0,47,-99.99,,,-99.99,,2013-03-15 15:23:00,
2013-03-15 11:33:00,37.0,18.0,29.84,SSW,200,8.0,-999.0,44,-99.99,,,-99.99,,2013-03-15 15:33:00,
2013-03-15 11:42:00,37.0,18.0,29.83,SSW,200,12.0,-999.0,44,-99.99,,,-99.99,,2013-03-15 15:42:00,
2013-03-15 11:52:00,37.0,18.0,29.82,SW,220,6.0,-999.0,44,-99.99,,,-99.99,,2013-03-15 15:52:00,
2013-03-15 12:03:00,37.0,18.0,29.82,SW,220,6.0,-999.0,44,-99.99,,,-99.99,,2013-03-15 16:03:00,
2013-03-15 12:12:00,39.0,18.0,29.80,SSE,160,9.0,-999.0,41,-99.99,,,-99.99,,2013-03-15 16:12:00,
2013-03-15 12:23:00,39.0,18.0,29.79,SSW,200,12.0,-999.0,41,-99.99,,,-99.99,,2013-03-15 16:23:00,
2013-03-15 12:32:00,39.0,18.0,29.79,South,180,10.0,16.0,41,-99.99,,,-99.99,,2013-03-15 16:32:00,
2013-03-15 12:42:00,39.0,18.0,29.79,SSW,210,9.0,16.0,41,-99.99,,,-99.99,,2013-03-15 16:42:00,
2013-03-15 12:52:00,39.0,18.0,29.78,South,180,13.0,-999.0,41,-99.99,,,-99.99,,2013-03-15 16:52:00,
2013-03-15 13:02:00,39.0,18.0,29.78,South,180,13.0,-999.0,41,-99.99,,,-99.99,,2013-03-15 17:02:00,
2013-03-15 13:12:00,43.0,19.0,29.77,SSW,200,14.0,20.0,38,-99.99,,,-99.99,,2013-03-15 17:12:00,
2013-03-15 13:22:00,43.0,19.0,29.76,SSW,210,9.0,21.0,38,-99.99,,,-99.99,,2013-03-15 17:22:00,
2013-03-15 13:32:00,43.0,21.0,29.76,SSW,200,16.0,21.0,41,-99.99,,,-99.99,,2013-03-15 17:32:00,
2013-03-15 13:42:00,41.0,21.0,29.75,SSW,200,14.0,18.0,44,-99.99,,,-99.99,,2013-03-15 17:42:00,
2013-03-15 13:52:00,41.0,25.0,29.74,SSW,200,14.0,22.0,52,-99.99,,,-99.99,,2013-03-15 17:52:00,
2013-03-15 14:03:00,41.0,25.0,29.74,SSW,200,14.0,22.0,52,-99.99,,,-99.99,,2013-03-15 18:03:00,
2013-03-15 14:12:00,41.0,25.0,29.73,SSW,200,13.0,22.0,52,-99.99,,,-99.99,,2013-03-15 18:12:00,
2013-03-15 14:22:00,41.0,25.0,29.73,WSW,240,9.0,16.0,52,-99.99,,,-99.99,,2013-03-15 18:22:00,
2013-03-15 14:32:00,41.0,27.0,29.72,SW,220,9.0,18.0,56,-99.99,,,-99.99,,2013-03-15 18:32:00,
2013-03-15 14:42:00,39.0,28.0,29.72,SSW,210,12.0,18.0,64,-99.99,,,-99.99,,2013-03-15 18:42:00,
2013-03-15 14:52:00,39.0,28.0,29.72,SW,230,8.0,-999.0,64,-99.99,,,-99.99,,2013-03-15 18:52:00,
2013-03-15 15:02:00,39.0,28.0,29.72,SW,230,8.0,-999.0,64,-99.99,,,-99.99,,2013-03-15 19:02:00,
2013-03-15 15:12:00,39.0,28.0,29.71,SSW,210,7.0,-999.0,64,-99.99,,,-99.99,,2013-03-15 19:12:00,
2013-03-15 15:22:00,41.0,28.0,29.70,SW,220,7.0,-999.0,60,-99.99,,,-99.99,,2013-03-15 19:22:00,
2013-03-15 15:32:00,39.0,28.0,29.70,SSW,210,9.0,-999.0,64,-99.99,,,-99.99,,2013-03-15 19:32:00,
2013-03-15 15:42:00,39.0,28.0,29.70,SW,220,8.0,-999.0,64,-99.99,,,-99.99,,2013-03-15 19:42:00,
2013-03-15 15:52:00,39.0,30.0,29.70,SW,220,8.0,16.0,69,-99.99,,,-99.99,,2013-03-15 19:52:00,
2013-03-15 16:02:00,39.0,30.0,29.70,SW,220,8.0,16.0,69,-99.99,,,-99.99,,2013-03-15 20:02:00,
2013-03-15 16:12:00,39.0,30.0,29.70,SSW,210,9.0,17.0,69,-99.99,,,-99.99,,2013-03-15 20:12:00,
2013-03-15 16:22:00,41.0,30.0,29.69,SW,220,8.0,-999.0,65,-99.99,,,-99.99,,2013-03-15 20:22:00,
2013-03-15 16:32:00,41.0,30.0,29.69,SSW,210,9.0,-999.0,65,-99.99,,,-99.99,,2013-03-15 20:32:00,
2013-03-15 16:42:00,41.0,30.0,29.69,SSW,210,10.0,-999.0,65,-99.99,,,-99.99,,2013-03-15 20:42:00,
2013-03-15 16:52:00,41.0,30.0,29.69,SW,220,10.0,-999.0,65,-99.99,,,-99.99,,2013-03-15 20:52:00,
2013-03-15 17:02:00,41.0,30.0,29.69,SW,220,10.0,-999.0,65,-99.99,,,-99.99,,2013-03-15 21:02:00,
2013-03-15 17:12:00,43.0,30.0,29.69,SSW,210,8.0,-999.0,60,-99.99,,,-99.99,,2013-03-15 21:12:00,
2013-03-15 17:22:00,43.0,30.0,29.69,SW,220,7.0,-999.0,60,-99.99,,,-99.99,,2013-03-15 21:22:00,
2013-03-15 17:33:00,43.0,30.0,29.69,SW,230,7.0,-999.0,60,-99.99,,,-99.99,,2013-03-15 21:33:00,
2013-03-15 17:43:00,43.0,30.0,29.69,SW,220,6.0,-999.0,60,-99.99,,,-99.99,,2013-03-15 21:43:00,
2013-03-15 17:52:00,43.0,30.0,29.69,SW,220,5.0,-999.0,60,-99.99,,,-99.99,,2013-03-15 21:52:00,
2013-03-15 18:04:00,43.0,30.0,29.69,SW,220,5.0,-999.0,60,-99.99,,,-99.99,,2013-03-15 22:04:00,
2013-03-15 18:13:00,43.0,30.0,29.69,WSW,240,3.0,-999.0,60,-99.99,,,-99.99,,2013-03-15 22:13:00,
2013-03-15 18:22:00,43.0,30.0,29.69,SW,230,3.0,-999.0,60,-99.99,,,-99.99,,2013-03-15 22:22:00,
2013-03-15 18:32:00,43.0,30.0,29.69,WSW,250,3.0,-999.0,60,-99.99,,,-99.99,,2013-03-15 22:32:00,
2013-03-15 18:42:00,43.0,30.0,29.69,West,270,5.0,-999.0,60,-99.99,,,-99.99,,2013-03-15 22:42:00,
2013-03-15 18:52:00,43.0,30.0,29.70,North,0,0.0,-999.0,60,-99.99,,,-99.99,,2013-03-15 22:52:00,
2013-03-15 19:03:00,43.0,30.0,29.70,North,0,0.0,-999.0,60,-99.99,,,-99.99,,2013-03-15 23:03:00,
2013-03-15 19:12:00,43.0,30.0,29.70,WSW,250,7.0,-999.0,60,-99.99,,,-99.99,,2013-03-15 23:12:00,
2013-03-15 19:22:00,41.0,30.0,29.70,West,270,5.0,-999.0,65,-99.99,,,-99.99,,2013-03-15 23:22:00,
2013-03-15 19:32:00,39.0,30.0,29.70,West,260,5.0,-999.0,69,-99.99,,,-99.99,,2013-03-15 23:32:00,
2013-03-15 19:42:00,39.0,30.0,29.70,WSW,250,3.0,-999.0,69,-99.99,,,-99.99,,2013-03-15 23:42:00,
2013-03-15 19:52:00,39.0,30.0,29.70,North,0,0.0,-999.0,69,-99.99,,,-99.99,,2013-03-15 23:52:00,
2013-03-15 20:03:00,39.0,30.0,29.70,North,0,0.0,-999.0,69,-99.99,,,-99.99,,2013-03-16 00:03:00,
2013-03-15 20:12:00,37.0,30.0,29.71,North,0,0.0,-999.0,74,-99.99,,,-99.99,,2013-03-16 00:12:00,
2013-03-15 20:22:00,36.0,30.0,29.71,North,0,0.0,-999.0,80,-99.99,,,-99.99,,2013-03-16 00:22:00,
2013-03-15 20:32:00,36.0,30.0,29.71,North,0,0.0,-999.0,80,-99.99,,,-99.99,,2013-03-16 00:32:00,
2013-03-15 20:42:00,37.0,28.0,29.72,WNW,300,6.0,-999.0,69,-99.99,,,-99.99,,2013-03-16 00:42:00,
2013-03-15 20:52:00,39.0,28.0,29.71,NW,310,8.0,-999.0,64,-99.99,,,-99.99,,2013-03-16 00:52:00,
2013-03-15 21:03:00,39.0,28.0,29.71,NW,310,8.0,-999.0,64,-99.99,,,-99.99,,2013-03-16 01:03:00,
2013-03-15 21:12:00,39.0,27.0,29.72,West,280,3.0,-999.0,60,-99.99,,,-99.99,,2013-03-16 01:12:00,
2013-03-15 21:22:00,39.0,27.0,29.72,WNW,290,6.0,-999.0,60,-99.99,,,-99.99,,2013-03-16 01:22:00,
2013-03-15 21:32:00,39.0,27.0,29.72,WNW,300,5.0,-999.0,60,-99.99,,,-99.99,,2013-03-16 01:32:00,
2013-03-15 21:42:00,39.0,27.0,29.72,WNW,300,9.0,-999.0,60,-99.99,,,-99.99,,2013-03-16 01:42:00,
2013-03-15 21:52:00,41.0,27.0,29.72,NW,310,9.0,-999.0,56,-99.99,,,-99.99,,2013-03-16 01:52:00,
2013-03-15 22:02:00,41.0,27.0,29.72,NW,310,9.0,-999.0,56,-99.99,,,-99.99,,2013-03-16 02:02:00,
2013-03-15 22:12:00,39.0,34.0,29.74,North,10,13.0,24.0,80,-99.99,,,-99.99,,2013-03-16 02:12:00,
2013-03-15 22:23:00,37.0,36.0,29.74,NNE,20,7.0,16.0,93,-99.99,,,-99.99,,2013-03-16 02:23:00,
2013-03-15 22:32:00,37.0,36.0,29.75,North,360,8.0,-999.0,93,-99.99,,,-99.99,,2013-03-16 02:32:00,
2013-03-15 22:42:00,37.0,36.0,29.75,North,360,8.0,-999.0,93,-99.99,,,-99.99,,2013-03-16 02:42:00,
2013-03-15 22:52:00,37.0,34.0,29.76,NW,310,6.0,-999.0,86,-99.99,,,-99.99,,2013-03-16 02:52:00,
2013-03-15 23:02:00,37.0,34.0,29.76,NW,310,6.0,-999.0,86,-99.99,,,-99.99,,2013-03-16 03:02:00,
2013-03-15 23:12:00,37.0,34.0,29.77,NW,310,5.0,-999.0,86,-99.99,,,-99.99,,2013-03-16 03:12:00,
2013-03-15 23:22:00,37.0,34.0,29.77,WNW,290,3.0,-999.0,86,-99.99,,,-99.99,,2013-03-16 03:22:00,
2013-03-15 23:32:00,37.0,32.0,29.77,West,280,3.0,-999.0,80,-99.99,,,-99.99,,2013-03-16 03:32:00,
2013-03-15 23:43:00,37.0,32.0,29.77,North,0,0.0,-999.0,80,-99.99,,,-99.99,,2013-03-16 03:43:00,
2013-03-15 23:52:00,37.0,30.0,29.78,North,0,0.0,-999.0,74,-99.99,,,-99.99,,2013-03-16 03:52:00,